Weather History for Erzurum, Turkey

Change the Weather History Date:

Sunday, December 9, 2012

  Actual Average Record
Temperature  
Mean Temperature 18 °F -  
Max Temperature 30 °F 29 °F 51 °F (2005)
Min Temperature 5 °F 16 °F -13 °F (2013)
Degree Days  
Heating Degree Days 48    
Moisture  
Dew Point 17 °F    
Average Humidity 94    
Maximum Humidity 100    
Minimum Humidity 82    
Precipitation  
Precipitation 0.00 in 0.03 in - ()
Sea Level Pressure  
Sea Level Pressure 30.18 in    
Wind  
Wind Speed 2 mph ()    
Max Wind Speed 14 mph    
Max Gust Speed -    
Visibility 5.6 miles    
Events Fog    
Averages and records for this station are not official NWS values.
T = Trace of Precipitation, MM = Missing Value Source: Averaged Metar Reports

Daily Weather History Graph

Daily Weather History Graph

Search for Another Location

Airport:

Trip Planner

Search our weather history database for the weather conditions in past years. The results will help you decide how hot, cold, wet, or windy it might be!

Date:

Astronomy

Dec. 09, 2012 Rise Set
Actual Time 6:25 AM EET 3:50 PM EET
Civil Twilight 5:55 AM EET 4:20 PM EET
Nautical Twilight 5:21 AM EET 4:54 PM EET
Astronomical Twilight 4:48 AM EET 5:27 PM EET
Moon 1:33 AM EET (12/9) 12:42 PM EET (12/9)
Length of Visible Light 10h 25m
Length of Day
9h 24m
Waning Crescent, 21% of the Moon is Illuminated
Dec 9
Waning Crescent
Dec 13
New
Dec 20
First Quarter
Dec 28
Full
Jan 5
Last Quarter

Hourly Weather History & Observations

Time (EET) Temp. Windchill Dew Point Humidity Pressure Visibility Wind Dir Wind Speed Gust Speed Precip Events Conditions
12:20 AM 24.8 °F - 24.8 °F 100% 30.15 in 6.2 mi Calm Calm - N/A   Scattered Clouds
12:50 AM 23.0 °F - 23.0 °F 100% 30.15 in 6.2 mi Calm Calm - N/A   Scattered Clouds
1:20 AM 17.6 °F - 17.6 °F 100% 30.15 in 6.2 mi Calm Calm - N/A   Scattered Clouds
1:50 AM 21.2 °F - 21.2 °F 100% 30.15 in 6.2 mi Calm Calm - N/A   Scattered Clouds
2:20 AM 21.2 °F - 19.4 °F 93% 30.15 in 6.2 mi Calm Calm - N/A   Scattered Clouds
2:50 AM 17.6 °F - 17.6 °F 100% 30.15 in 3.7 mi Calm Calm - N/A   Scattered Clouds
3:20 AM 15.8 °F - 15.8 °F 100% 30.15 in 1.2 mi Calm Calm - N/A   Scattered Clouds
3:50 AM 17.6 °F - 17.6 °F 100% 30.15 in 1.2 mi Calm Calm - N/A   Scattered Clouds
4:20 AM 19.4 °F - 17.6 °F 93% 30.15 in 3.7 mi Calm Calm - N/A   Scattered Clouds
4:50 AM 17.6 °F - 17.6 °F 100% 30.15 in 3.7 mi Calm Calm - N/A   Scattered Clouds
5:20 AM 19.4 °F - 19.4 °F 100% 30.18 in 5.0 mi Calm Calm - N/A   Scattered Clouds
5:50 AM 19.4 °F - 19.4 °F 100% 30.18 in 6.2 mi Calm Calm - N/A   Scattered Clouds
6:20 AM 15.8 °F - 14.0 °F 93% 30.18 in 6.2 mi Calm Calm - N/A   Scattered Clouds
6:50 AM 15.8 °F - 15.8 °F 100% 30.18 in 6.2 mi Calm Calm - N/A   Scattered Clouds
7:20 AM 17.6 °F - 17.6 °F 100% 30.21 in 6.2 mi Calm Calm - N/A   Scattered Clouds
7:50 AM 19.4 °F - 19.4 °F 100% 30.21 in 6.2 mi Calm Calm - N/A   Scattered Clouds
8:00 AM 19 °F - 18 °F 96%  in 6 mi Calm Calm - -   Partly Cloudy
8:20 AM 21.2 °F - 21.2 °F 100% 30.21 in 6.2 mi Calm Calm - N/A   Scattered Clouds
8:50 AM 23.0 °F - 23.0 °F 100% 30.21 in 6.2 mi Calm Calm - N/A   Scattered Clouds
9:20 AM 28.4 °F - 28.4 °F 100% 30.21 in 6.2 mi Variable 1.2 mph - N/A   Scattered Clouds
9:50 AM 28.4 °F - 24.8 °F 86% 30.21 in 6.2 mi Variable 2.3 mph - N/A   Scattered Clouds
10:20 AM 26.6 °F - 24.8 °F 93% 30.21 in 6.2 mi Variable 2.3 mph - N/A   Scattered Clouds
10:50 AM 28.4 °F - 24.8 °F 86% 30.21 in 6.2 mi Variable 1.2 mph - N/A   Scattered Clouds
11:20 AM 26.6 °F 22.6 °F 24.8 °F 93% 30.18 in 6.2 mi ESE 3.5 mph - N/A   Scattered Clouds
11:50 AM 26.6 °F 17.5 °F 23.0 °F 86% 30.18 in 6.2 mi ESE 9.2 mph - N/A   Scattered Clouds
12:20 PM 28.4 °F 23.3 °F 24.8 °F 86% 30.18 in 6.2 mi ESE 4.6 mph - N/A   Scattered Clouds
12:50 PM 26.6 °F 18.2 °F 24.8 °F 93% 30.18 in 6.2 mi ENE 8.1 mph - N/A   Scattered Clouds
1:20 PM 26.6 °F 16.8 °F 23.0 °F 86% 30.18 in 6.2 mi East 10.4 mph - N/A   Scattered Clouds
1:50 PM 26.6 °F 15.2 °F 23.0 °F 86% 30.18 in 6.2 mi ENE 13.8 mph - N/A   Scattered Clouds
2:00 PM 27 °F - 24 °F 82%  in 12 mi ENE 13.8 mph - -   Partly Cloudy
2:20 PM 26.6 °F 15.2 °F 23.0 °F 86% 30.18 in 6.2 mi ENE 13.8 mph - N/A   Scattered Clouds
2:50 PM 24.8 °F 14.6 °F 21.2 °F 86% 30.18 in 6.2 mi East 10.4 mph - N/A   Scattered Clouds
3:20 PM 23.0 °F 12.4 °F 21.2 °F 93% 30.18 in 6.2 mi East 10.4 mph - N/A   Scattered Clouds
3:50 PM 23.0 °F 12.4 °F 19.4 °F 86% 30.18 in 6.2 mi East 10.4 mph - N/A   Scattered Clouds
4:20 PM 21.2 °F 10.9 °F 19.4 °F 93% 30.18 in 6.2 mi East 9.2 mph - N/A   Scattered Clouds
4:50 PM 15.8 °F 6.1 °F 14.0 °F 93% 30.18 in 6.2 mi ESE 6.9 mph - N/A   Scattered Clouds
5:20 PM 15.8 °F - 15.8 °F 100% 30.18 in 6.2 mi Variable 1.2 mph - N/A   Scattered Clouds
5:50 PM 12.2 °F - 12.2 °F 100% 30.18 in 6.2 mi ENE 2.3 mph - N/A   Scattered Clouds
6:20 PM 12.2 °F - 12.2 °F 100% 30.18 in 6.2 mi Variable 1.2 mph - N/A   Scattered Clouds
6:50 PM 10.4 °F - 8.6 °F 92% 30.18 in 6.2 mi Variable 2.3 mph - N/A   Partly Cloudy
7:20 PM 10.4 °F - 8.6 °F 92% 30.18 in 6.2 mi Calm Calm - N/A   Partly Cloudy
7:50 PM 6.8 °F - 5.0 °F 92% 30.18 in - SW 2.3 mph - N/A   Clear
8:00 PM 7 °F - 7 °F 100%  in 12 mi SW 2.3 mph - -  
8:20 PM 6.8 °F - 5.0 °F 92% 30.18 in 1.6 mi Variable 2.3 mph - N/A   Mist
8:50 PM 8.6 °F - 8.6 °F 100% 30.18 in - Variable 2.3 mph - N/A Fog Patches of Fog
9:20 PM 10.4 °F - 8.6 °F 92% 30.18 in - Calm Calm - N/A Fog Patches of Fog
9:50 PM 8.6 °F - 6.8 °F 92% 30.18 in - Variable 1.2 mph - N/A   Mist
10:20 PM 8.6 °F - 6.8 °F 92% 30.18 in 0.3 mi SW 1.2 mph - N/A Fog Patches of Fog
10:50 PM 8.6 °F - 6.8 °F 92% 30.18 in 0.2 mi SW 1.2 mph - N/A Fog Patches of Fog
11:20 PM 5.0 °F - 3.2 °F 92% 30.15 in 0.2 mi Calm Calm - N/A Fog Patches of Fog
11:50 PM 5.0 °F - 3.2 °F 92% 30.15 in - Calm Calm - N/A Fog Patches of Fog